Location: *
(51.1248°S, 108.4023°W)
Time: 12:39:41
(UTC+00:00)

USA 281 - Pass Details

Date: 24 October 2021
Orbit: 1078 x 1081 km, 106.0° (Epoch: 25 November)

Event Time Altitude Azimuth Distance (km) Brightness Sun altitude
Exits shadow 05:05:21 - 324° (NW) 3,788 5.9 -22.5°
Reaches altitude 10° 05:09:20 10° 298° (WNW) 2,935 5.5 -22.8°
Maximum altitude 05:12:08 13° 272° (W) 2,729 5.6 -23.0°
Drops below altitude 10° 05:14:57 10° 247° (WSW) 2,950 6.2 -23.2°
Sets 05:19:20 0° 219° (SW) 3,917 7.5 -23.5°
